User: anonymous   Login
Location: Alberta Star Party
(51.6612°N, 112.9089°W)
Time: 00:14:41
(UTC-06:00)
Language:

AO-Echo - Orbit

View from above orbital plane
View from above orbital plane
View from above satellite
View from above satellite

Ground track
Ground track

The orbit data is extracted from the following two-line orbital elements,

1 28375U 04025K   17080.85569847 +.00000012 +00000-0 +16892-4 0  9997
2 28375 098.3533 016.1558 0082357 186.0262 173.9945 14.41828953669176
Epoch (UTC): 21 March 2017 20:32:12
Eccentricity: 0.0082357
inclination: 98.3533°
perigee height: 694 km
apogee height: 811 km
right ascension of ascending node: 16.1558°
argument of perigee: 186.0262°
revolutions per day: 14.41828953
mean anomaly at epoch: 173.9945°
orbit number at epoch: 66917

The dashed part of the orbit path shows where the satellite is in the earth's shadow,  

DLR